San Marcos, TX

8:58 PM CDT on June 26, 2017 (GMT -0500)
San Marcos Municipal

Weather History for KHYI - March, 2013

Change the Weather History Date:

Sunday, March 17, 2013

  Actual Average (KAUS) Record (KAUS)
Temperature  
Mean Temperature 74 °F -  
Max Temperature 84 °F 68 °F 89 °F (1972)
Min Temperature 64 °F 47 °F 30 °F (2005)
Cooling Degree Days 9    
Growing Degree Days 24 (Base 50)    
Moisture  
Dew Point 58 °F    
Average Humidity 66    
Maximum Humidity 83    
Minimum Humidity 40    
Precipitation  
Precipitation 0.00 in - - ()
Sea Level Pressure  
Sea Level Pressure 29.76 in    
Wind  
Wind Speed 14 mph (South)    
Max Wind Speed 23 mph    
Max Gust Speed 29 mph    
Visibility 10 miles    
Events      
Averages and records for this station are not official NWS values.
T = Trace of Precipitation, MM = Missing Value Source: NWS Daily Summary

Daily Weather History Graph

Daily Weather History Graph

Search for Another Location

Airport or City:

Trip Planner

Search our weather history database for the weather conditions in past years. The results will help you decide how hot, cold, wet, or windy it might be!

Date:

Astronomy

Mar. 17, 2013 Rise Set
Actual Time 7:38 AM CDT 7:41 PM CDT
Civil Twilight 7:14 AM CDT 8:05 PM CDT
Nautical Twilight 6:46 AM CDT 8:32 PM CDT
Astronomical Twilight 6:19 AM CDT 9:00 PM CDT
Moon 11:16 AM CDT (3/17) 12:27 AM CDT (3/17)
Length of Visible Light 12h 50m
Length of Day
12h 02m
Waxing Crescent, 31% of the Moon is Illuminated
Mar 17
Waxing Crescent
Mar 19
First Quarter
Mar 27
Full
Apr 2
Last Quarter
Apr 10
New

Hourly Weather History & Observations

Time (CDT) Temp. Heat Index Dew Point Humidity Pressure Visibility Wind Dir Wind Speed Gust Speed Precip Events Conditions
12:15 AM 68.0 °F - 59.0 °F 73% 29.83 in 10.0 mi South 19.6 mph 24.2 mph N/A   Overcast
12:35 AM 68.0 °F - 57.2 °F 68% 29.83 in 10.0 mi South 18.4 mph - N/A   Overcast
12:55 AM 66.2 °F - 57.2 °F 73% 29.83 in 10.0 mi South 17.3 mph 25.3 mph N/A   Overcast
1:15 AM 66.2 °F - 57.2 °F 73% 29.82 in 10.0 mi South 18.4 mph 23.0 mph N/A   Overcast
1:35 AM 66.2 °F - 59.0 °F 78% 29.82 in 10.0 mi South 23.0 mph 28.8 mph N/A   Overcast
1:55 AM 66.2 °F - 57.2 °F 73% 29.82 in 10.0 mi South 19.6 mph 28.8 mph N/A   Overcast
2:15 AM 66.2 °F - 57.2 °F 73% 29.82 in 10.0 mi South 18.4 mph - N/A   Overcast
2:35 AM 66.2 °F - 57.2 °F 73% 29.82 in 10.0 mi South 16.1 mph 23.0 mph N/A   Overcast
2:55 AM 66.2 °F - 57.2 °F 73% 29.81 in 10.0 mi South 18.4 mph - N/A   Overcast
3:15 AM 66.2 °F - 57.2 °F 73% 29.80 in 10.0 mi South 18.4 mph - N/A   Overcast
3:35 AM 66.2 °F - 57.2 °F 73% 29.79 in 10.0 mi South 15.0 mph - N/A   Overcast
3:55 AM 66.2 °F - 57.2 °F 73% 29.79 in 10.0 mi South 13.8 mph - N/A   Overcast
4:15 AM 66.2 °F - 57.2 °F 73% 29.78 in 10.0 mi South 12.7 mph - N/A   Overcast
4:55 AM 64.4 °F - 57.2 °F 77% 29.78 in 10.0 mi South 11.5 mph - N/A   Overcast
5:15 AM 64.4 °F - 57.2 °F 77% 29.78 in 10.0 mi South 10.4 mph - N/A   Overcast
5:35 AM 64.4 °F - 59.0 °F 83% 29.78 in 10.0 mi South 9.2 mph - N/A   Overcast
5:55 AM 64.4 °F - 59.0 °F 83% 29.78 in 10.0 mi South 6.9 mph - N/A   Overcast
6:15 AM 64.4 °F - 59.0 °F 83% 29.78 in 10.0 mi South 8.1 mph - N/A   Overcast
6:35 AM 64.4 °F - 59.0 °F 83% 29.78 in 10.0 mi South 8.1 mph - N/A   Overcast
6:50 AM 64.4 °F - 59.0 °F 83% 29.78 in 10.0 mi SSE 6.9 mph - N/A   Overcast
7:52 AM 64.4 °F - 59.0 °F 83% 29.79 in 10.0 mi SSE 6.9 mph - N/A   Overcast
8:55 AM 66.2 °F - 60.8 °F 83% 29.80 in 10.0 mi SSE 11.5 mph - N/A   Overcast
9:50 AM 68.0 °F - 60.8 °F 78% 29.80 in 10.0 mi South 12.7 mph - N/A   Overcast
10:50 AM 69.8 °F - 59.0 °F 68% 29.83 in 10.0 mi South 9.2 mph - N/A   Overcast
11:55 AM 71.6 °F - 59.0 °F 64% 29.82 in 10.0 mi South 11.5 mph - N/A   Overcast
12:50 PM 75.2 °F - 60.8 °F 61% 29.79 in 10.0 mi South 11.5 mph - N/A   Mostly Cloudy
1:48 PM 78.8 °F - 59.0 °F 51% 29.76 in 10.0 mi South 11.5 mph 16.1 mph N/A   Mostly Cloudy
2:53 PM 80.6 °F 81.1 °F 59.0 °F 48% 29.72 in 10.0 mi South 9.2 mph - N/A   Partly Cloudy
3:53 PM 82.4 °F 82.5 °F 59.0 °F 45% 29.70 in 10.0 mi SSW 13.8 mph - N/A   Partly Cloudy
4:53 PM 84.2 °F 83.5 °F 57.2 °F 40% 29.67 in 10.0 mi SSW 9.2 mph - N/A   Clear
5:55 PM 84.2 °F 83.5 °F 57.2 °F 40% 29.67 in 10.0 mi SW 10.4 mph - N/A   Clear
6:48 PM 82.4 °F 82.0 °F 57.2 °F 42% 29.66 in 10.0 mi South 6.9 mph - N/A   Clear
6:55 PM 82.4 °F 82.0 °F 57.2 °F 42% 29.66 in 10.0 mi South 5.8 mph - N/A   Clear
7:15 PM 80.6 °F 80.8 °F 57.2 °F 45% 29.66 in 10.0 mi SW 5.8 mph - N/A   Clear
7:35 PM 80.6 °F 80.5 °F 55.4 °F 42% 29.67 in 10.0 mi SSW 5.8 mph - N/A   Clear
7:55 PM 78.8 °F - 55.4 °F 44% 29.67 in 10.0 mi South 3.5 mph - N/A   Clear
8:15 PM 75.2 °F - 55.4 °F 50% 29.68 in 10.0 mi SSE 5.8 mph - N/A   Clear
8:35 PM 73.4 °F - 53.6 °F 50% 29.68 in 10.0 mi SE 13.8 mph 17.3 mph N/A   Clear
8:55 PM 75.2 °F - 59.0 °F 57% 29.69 in 10.0 mi SE 11.5 mph - N/A   Clear
9:15 PM 75.2 °F - 60.8 °F 61% 29.70 in 10.0 mi SE 17.3 mph - N/A   Clear
9:35 PM 73.4 °F - 60.8 °F 65% 29.72 in 10.0 mi SE 15.0 mph - N/A   Clear
9:55 PM 73.4 °F - 60.8 °F 65% 29.73 in 10.0 mi SE 13.8 mph - N/A   Clear
10:15 PM 71.6 °F - 60.8 °F 69% 29.73 in 10.0 mi SSE 15.0 mph - N/A   Clear
10:35 PM 71.6 °F - 60.8 °F 69% 29.74 in 10.0 mi SSE 13.8 mph - N/A   Clear
10:55 PM 69.8 °F - 60.8 °F 73% 29.74 in 10.0 mi SSE 10.4 mph - N/A   Clear
11:15 PM 69.8 °F - 60.8 °F 73% 29.74 in 10.0 mi SSE 9.2 mph - N/A   Clear
11:35 PM 69.8 °F - 60.8 °F 73% 29.74 in 10.0 mi SSE 11.5 mph - N/A   Clear
11:55 PM 68.0 °F - 60.8 °F 78% 29.74 in 10.0 mi SSE 11.5 mph - N/A   Scattered Clouds